Retour au catalogue

STARLINK-34420

ActifCommunicationsVLEO
NORAD 64483·PAYLOAD·🇺🇸 United States

Lancé Jun 23, 2025 depuis Cape Canaveral Space Force Station

Loading…

Prochains Passages (prochaines 24 heures)

TLE

FraisSource: CelesTrak SupGP

Époque: Sep 15, 2026, 03:15 UTC

1 64483C 25133M   26258.13590278  .00040630  00000+0  12003-2 0  2585
2 64483  53.1572 314.5383 0001235  99.0248 344.3518 15.34374622    16

Suivez STARLINK-34420 en temps réel avec AllMySat

Download on the App Store